Location: Mexico
(19.4000°N, 99.1500°W)
Time: 09:42:51
(UTC-06:00)

ISS - Pass Details

Date: 18 January 2018
Orbit: 402 x 407 km, 51.6° (Epoch: 23 January)

Event Time Altitude Azimuth Distance (km) Brightness Sun altitude
Exits shadow 06:46:08 - 315° (NW) 1,710 -1.2 -6.9°
Reaches altitude 10° 06:46:45 10° 314° (NW) 1,456 -1.6 -6.7°
Maximum altitude 06:49:58 62° 233° (SW) 458 -3.7 -6.0°
Drops below altitude 10° 06:53:12 10° 151° (SSE) 1,454 -0.2 -5.3°
Sets 06:55:17 0° 148° (SSE) 2,312 1.0 -4.8°
